Satellite: IDEFIX/ARIANE 
Catalog number: 27422
Epoch time:      102363.87169920
Element set:     196 
Inclination:       98.7031 deg
RA of node:        78.2889 deg
Eccentricity:    0.0011831
Arg of perigee:   299.9881 deg
Mean anomaly:      60.0122 deg
Mean motion:   14.27941304 rev/day
Decay rate:    5.5800E-006 rev/day^2
Epoch rev:            3422
Checksum:              314

Satellite: NOAA 17
Catalog number: 27453
Epoch time:      102363.87929293
Element set:     249 
Inclination:       98.7662 deg
RA of node:        70.3380 deg
Eccentricity:    0.0012218
Arg of perigee:   140.4234 deg
Mean anomaly:     219.7837 deg
Mean motion:   14.23261280 rev/day
Decay rate:    5.3799E-006 rev/day^2
Epoch rev:            2675
Checksum:              331

Satellite: HOT BIRD 6
Catalog number: 27499
Epoch time:      102351.86791068
Element set:     63 
Inclination:        0.0109 deg
RA of node:       318.8794 deg
Eccentricity:    0.0005346
Arg of perigee:   321.1542 deg
Mean anomaly:     131.7250 deg
Mean motion:    1.00272691 rev/day
Decay rate:    1.1199E-006 rev/day^2
Epoch rev:             120
Checksum:              381

Satellite: RUBIN-2
Catalog number: 27605
Epoch time:      102364.21613464
Element set:     16 
Inclination:       64.5598 deg
RA of node:       350.1354 deg
Eccentricity:    0.0031628
Arg of perigee:   132.0677 deg
Mean anomaly:     228.3118 deg
Mean motion:   14.71348473 rev/day
Decay rate:    1.2520E-005 rev/day^2
Epoch rev:             140
Checksum:              271


Read previous mail | Read next mail


 05.07.2025 18:51:49lGo back Go up